[[{"header":{"parameterUnit":"m.s-1","parameterCategory":1,"la1":30.2992,"la2":30.254,"lo1":-89.0895,"lo2":-89.0443,"dy":0.0025,"dx":0.0025,"nx":19,"ny":19,"refTime":"2026-04-05T21:00:00:Z","depth":0,"parameterNumber":2,"parameterNumberName":"U-component_of_WINDS"},"data":[0,0,0,-4.2533,-4.2538,-4.2733,-4.2733,-4.3024,-4.3027,0,0,0,0,0,0,0,0,0,0,0,-4.25,-4.2503,-4.2533,-4.2538,-4.2733,-4.2733,-4.3023,-4.3027,0,0,0,0,0,0,0,0,0,0,0,-4.2499,-4.2502,-4.2506,-4.2539,-4.2733,-4.2733,-4.3023,-4.2861,0,0,0,0,0,0,0,0,0,0,-4.2665,-4.2658,-4.2501,-4.2506,-4.254,-4.2732,-4.2733,-4.2853,-4.2871,-4.2953,0,-4.3032,0,-4.3034,-4.3049,-4.305,0,0,0,-4.252,-4.2643,-4.2673,-4.2506,-4.2542,-4.2732,-4.264,-4.2862,-4.2884,-4.2978,-4.3036,-4.3046,-4.3039,-4.3051,-4.3053,-4.3586,-4.359,0,0,-4.2509,-4.2549,-4.2659,-4.2688,-4.266,-4.2634,-4.2646,-4.2875,-4.2941,-4.3037,-4.3052,-4.3044,-4.3053,-4.3056,-4.3583,-4.3587,0,0,0,-4.2491,-4.2542,-4.2565,-4.2677,-4.2709,-4.264,-4.2654,-4.293,-4.2935,-4.3055,-4.3047,-4.3055,-4.3059,-4.3579,-4.3585,-4.3792,0,0,0,-4.2483,-4.2531,-4.2562,-4.2588,-4.2706,-4.2822,-4.2706,-4.2919,-4.2943,-4.3046,-4.3055,-4.3062,-4.3576,-4.3582,-4.3778,-4.3885,0,0,0,-4.2479,-4.253,-4.2567,-4.2589,-4.2674,-4.2817,-4.2834,-4.2923,-4.294,-4.305,-4.3063,-4.3573,-4.3581,-4.3766,-4.3865,-4.4041,0,0,0,-4.2486,-4.2747,-4.2571,-4.2858,-4.2673,-4.2942,-4.2832,-4.3031,-4.3149,-4.3057,-4.3576,-4.3584,-4.3762,-4.3852,-4.4028,-4.42,-4.4273,0,0,-4.2837,-4.279,-4.2956,-4.2805,-4.3116,-4.2909,-4.3251,-4.3322,-4.3295,-4.3491,-4.3503,-4.3782,-4.3863,-4.4038,-4.4663,-4.4722,0,0,0,-4.3082,-4.3203,-4.3276,-4.3391,-4.345,-4.3512,-4.3525,-4.3551,-4.3715,-4.3404,-4.3889,-4.3936,-4.4037,-4.4117,-4.4168,-4.4254,-4.3621,-4.362,-4.362,-4.364,-4.3591,-4.3864,-4.384,-4.3952,-4.3963,-4.4051,-4.4088,-4.4006,-4.4121,-4.4182,-4.4567,-4.4663,-4.47,-4.479,-4.4263,-4.4264,-4.4264,-4.4265,-4.4155,-4.4321,-4.4203,-4.4427,-4.4374,-4.4561,-4.4582,-4.4517,-4.4685,-4.4517,-4.4604,-4.4431,-4.4766,-4.4843,-4.428,-4.4277,-4.4276,-4.4274,-4.4273,-4.4521,-4.4592,-4.4617,-4.4779,-4.4908,-4.4871,-4.5039,-4.4982,-4.4931,-4.5016,-4.5076,-4.5073,-4.5067,-4.5047,-4.5049,-4.505,-4.5051,-4.5052,-4.5053,-4.4893,-4.4915,-4.5063,-4.5147,-4.5213,-4.5294,-4.5305,-4.5369,-4.5427,-4.5373,-4.5373,-4.5284,-4.4805,-4.469,-4.5074,-4.507,-4.5067,-4.5065,-4.5064,-4.5445,-4.531,-4.5539,-4.5606,-4.57,-4.5834,-4.5757,-4.5893,-4.5937,-4.6022,-4.5911,-4.5565,-4.5514,-4.5474,-4.5379,-4.5917,-4.5917,-4.5917,-4.5917,-4.5759,-4.5725,-4.5947,-4.6058,-4.6159,-4.6113,-4.6375,-4.6386,-4.6376,-4.6401,-4.6313,-4.6179,-4.614,-4.6113,-4.6058,-4.5969,-4.6646,-4.6647,-4.6647,-4.6098,-4.6071,-4.6306,-4.6293,-4.6362,-4.6423,-4.6668,-4.6801,-4.6761,-4.6676,-4.642,-4.639,-4.6173,-4.6104,-4.6021,-4.5938,-4.5773,0,0]},{"header":{"parameterUnit":"m.s-1","parameterCategory":1,"la1":30.2992,"la2":30.254,"lo1":-89.0895,"lo2":-89.0443,"dy":0.0025,"dx":0.0025,"nx":19,"ny":19,"refTime":"2026-04-05T21:00:00:Z","depth":0,"parameterNumber":3,"parameterNumberName":"V-component_of_WINDS"},"data":[0,0,0,-3.8849,-3.8851,-3.8934,-3.8934,-3.9044,-3.9045,0,0,0,0,0,0,0,0,0,0,0,-3.883,-3.8831,-3.8849,-3.8851,-3.8934,-3.8935,-3.9044,-3.9045,0,0,0,0,0,0,0,0,0,0,0,-3.8829,-3.883,-3.8831,-3.8852,-3.8934,-3.8935,-3.9044,-3.8979,0,0,0,0,0,0,0,0,0,0,-3.8898,-3.8885,-3.883,-3.8832,-3.8852,-3.8934,-3.8935,-3.8976,-3.8983,-3.9009,0,-3.9036,0,-3.9042,-3.9053,-3.9054,0,0,0,-3.8847,-3.8879,-3.8897,-3.8832,-3.8853,-3.8934,-3.8896,-3.898,-3.8988,-3.9019,-3.9037,-3.9041,-3.9044,-3.9054,-3.9055,-3.922,-3.9221,0,0,-3.8843,-3.8847,-3.8892,-3.8903,-3.8893,-3.8893,-3.8898,-3.8985,-3.9005,-3.9038,-3.9043,-3.9046,-3.9055,-3.9056,-3.9219,-3.922,0,0,0,-3.8832,-3.8844,-3.886,-3.8899,-3.8913,-3.8895,-3.8902,-3.9001,-3.9005,-3.9045,-3.9047,-3.9055,-3.9057,-3.9218,-3.922,-3.9271,0,0,0,-3.8829,-3.8838,-3.8858,-3.8861,-3.8912,-3.8959,-3.8915,-3.8999,-3.9009,-3.9047,-3.9055,-3.9058,-3.9217,-3.9219,-3.9267,-3.9294,0,0,0,-3.8822,-3.8837,-3.8851,-3.8861,-3.8897,-3.8957,-3.8967,-3.9001,-3.9011,-3.9054,-3.9058,-3.9216,-3.9219,-3.9264,-3.9288,-3.9336,0,0,0,-3.8816,-3.8896,-3.8852,-3.8942,-3.8897,-3.8989,-3.8966,-3.9035,-3.9078,-3.9056,-3.9217,-3.922,-3.9263,-3.9285,-3.9333,-3.9377,-3.9396,0,0,-3.8919,-3.8909,-3.8961,-3.8924,-3.9025,-3.8976,-3.9084,-3.9119,-3.9119,-3.9186,-3.919,-3.9268,-3.9288,-3.9336,-3.9505,-3.9521,0,0,0,-3.8995,-3.9033,-3.9059,-3.91,-3.9129,-3.9154,-3.9173,-3.9185,-3.9241,-3.9155,-3.93,-3.9311,-3.9339,-3.9359,-3.9372,-3.9395,-3.923,-3.923,-3.9229,-3.9147,-3.9142,-3.9227,-3.9232,-3.9272,-3.9288,-3.9319,-3.9338,-3.9322,-3.9356,-3.9376,-3.9479,-3.9504,-3.9513,-3.9537,-3.94,-3.94,-3.94,-3.94,-3.9296,-3.9347,-3.9322,-3.9396,-3.9389,-3.945,-3.9468,-3.9454,-3.9508,-3.9465,-3.9489,-3.9441,-3.953,-3.955,-3.9404,-3.9404,-3.9403,-3.9403,-3.9402,-3.9393,-3.9417,-3.943,-3.9487,-3.9531,-3.9532,-3.9584,-3.9577,-3.957,-3.9594,-3.9611,-3.9611,-3.9607,-3.9603,-3.9604,-3.9604,-3.9604,-3.9605,-3.9605,-3.9488,-3.9502,-3.9548,-3.9583,-3.9607,-3.9637,-3.9652,-3.9675,-3.9697,-3.9687,-3.9687,-3.9665,-3.9541,-3.9509,-3.961,-3.9609,-3.9609,-3.9608,-3.9608,-3.9638,-3.9602,-3.9673,-3.9697,-3.9735,-3.9777,-3.9767,-3.9812,-3.9829,-3.9855,-3.9828,-3.9738,-3.9726,-3.9716,-3.9689,-3.9831,-3.9831,-3.9831,-3.9831,-3.9718,-3.9711,-3.978,-3.9818,-3.9854,-3.985,-3.9927,-3.9938,-3.9944,-3.9954,-3.9932,-3.9896,-3.9886,-3.988,-3.9866,-3.9841,-4.0018,-4.0018,-4.0019,-3.9808,-3.9804,-3.9872,-3.9878,-3.9907,-3.9931,-4.0002,-4.0044,-4.0043,-4.0026,-3.996,-3.9952,-3.9894,-3.9876,-3.9856,-3.9835,-3.9788,0,0]}]]